Simultaneous Nadir Overpasses (SNOs) Predictions

Prediction of SNOs between GOES-16 and NOAA-20 Satellite Orbit:

Table of predicted SNOs for the next 14.0 days since TLE Epoch: 7/19/2019
Index Date Time (GOES-16) GOES-16 Lat,Lon NOAA-20 Lat,Lon Distance(km) Time Diff (sec)
1 07/20/2019 06:44:34 -0.02, -75.20 0.92, -79.48 487.57 80
2 07/21/2019 06:23:09 -0.02, -75.20 -0.07, -74.94 29.07 80
3 07/23/2019 18:26:19 0.02, -75.20 -0.13, -75.70 58.11 80
4 07/24/2019 18:10:14 0.02, -75.21 0.93, -71.18 459.16 80
5 07/26/2019 06:32:01 -0.02, -75.22 0.28, -76.44 139.94 80
6 07/27/2019 06:10:36 -0.02, -75.22 -0.78, -71.92 377.32 80
7 07/28/2019 18:32:31 0.02, -75.23 -0.42, -77.22 226.38 80
8 07/29/2019 18:16:26 0.02, -75.24 0.58, -72.68 291.00 80
9 07/31/2019 06:35:33 -0.03, -75.25 0.57, -77.95 307.71 80
10 08/01/2019 06:19:28 -0.03, -75.26 -0.43, -73.42 209.83 80




NCC Satellite Simultaneous Nadir Overpasses (SNOs) Prediction Service
